Theta_e
331 326 328 322 306 307 302 305 311 310 312 317 319 318 317 320 321 318 336 337 351 346 350 355 359 359 358 356 357 359 360 361 362 362 360 358 356 353 350 348 345 341 339 337 337 336 336 336 335
323 323 322 314 303 300 303 309 309 312 317 321 321 321 321 320 330 333 332 337 354 349 349 352 359 359 358 356 355 356 358 359 360 360 358 356 355 352 348 346 343 340 339 338 337 337 336 336 336
328 323 313 307 303 300 302 311 311 314 321 322 321 324 323 324 332 334 340 341 354 350 347 353 359 358 357 356 355 354 355 356 357 358 356 354 353 351 349 347 345 341 340 339 338 338 338 338 338
325 321 314 303 301 306 308 311 314 314 318 324 323 320 327 335 334 337 339 339 350 349 345 356 358 358 357 356 355 353 353 353 354 355 354 353 351 350 348 347 346 345 342 341 340 340 341 341 341
324 316 304 301 302 307 311 314 314 314 318 320 322 320 323 333 338 338 339 341 343 347 346 354 356 357 357 357 356 354 353 352 352 352 352 351 350 349 348 347 347 345 344 343 341 344 344 344 344
313 312 301 299 303 307 311 314 314 314 317 322 321 321 324 333 336 336 338 341 341 344 350 355 356 356 356 356 355 353 353 352 352 352 352 351 350 349 348 347 347 347 347 346 346 346 347 347 347
314 308 301 301 302 305 308 314 311 313 315 317 324 319 326 331 335 338 336 340 340 344 354 354 353 354 356 355 354 353 352 352 351 350 350 350 350 349 348 347 347 347 347 347 347 348 348 348 347
317 313 306 306 304 304 311 312 314 312 312 321 325 317 322 333 337 337 333 336 338 342 354 355 353 349 349 351 355 353 352 351 350 350 350 349 350 349 348 346 347 348 348 348 348 348 348 348 348
316 307 305 306 306 308 313 311 315 317 313 316 319 323 330 335 335 335 331 332 335 338 348 355 352 349 346 345 350 354 353 352 351 351 351 348 344 344 343 345 344 348 348 349 349 349 349 349 349
308 305 306 312 312 311 313 313 313 312 312 313 317 325 329 333 335 332 329 329 332 334 338 347 352 349 345 341 346 349 349 349 348 346 345 346 342 340 340 342 345 347 348 349 349 349 350 348 343
308 305 311 312 314 315 313 313 315 312 310 313 316 320 327 328 333 331 330 330 331 334 336 342 352 351 347 344 346 349 346 345 345 344 343 344 341 339 339 338 340 341 346 342 344 345 345 342 341
303 309 311 313 315 314 313 317 315 314 313 317 318 323 326 327 329 331 331 331 333 334 337 346 353 355 353 350 346 351 349 347 344 344 344 342 341 339 338 337 339 337 338 339 337 338 340 341 342
302 305 309 311 313 314 315 313 314 315 317 318 319 320 324 328 329 333 335 334 339 330 332 341 354 357 360 361 358 351 349 350 348 347 346 343 342 340 340 340 338 339 338 339 336 338 338 340 341
305 305 306 308 309 312 311 312 314 316 320 319 320 319 321 326 326 330 334 338 348 349 352 347 355 360 361 358 359 362 360 352 353 351 350 347 343 344 341 340 343 340 339 339 338 336 338 339 341
304 301 304 305 306 307 310 307 309 316 318 318 319 320 320 322 326 327 331 338 343 346 359 348 354 365 363 361 361 358 356 354 350 352 357 350 348 344 345 343 338 343 343 342 342 339 340 343 342
298 300 296 303 305 307 306 300 309 314 315 316 317 319 321 322 323 327 332 340 343 344 345 349 338 355 363 361 359 357 354 353 354 353 355 358 351 350 348 346 345 342 345 341 342 342 340 339 338
296 290 293 297 305 304 304 301 309 313 313 314 317 318 319 321 324 329 331 334 340 344 347 347 351 351 360 362 359 359 357 358 355 352 354 358 356 351 351 347 346 350 344 343 342 338 341 337 338
291 292 294 294 299 302 302 302 307 310 310 312 315 318 319 320 322 326 332 332 340 344 346 350 349 355 359 358 358 352 350 348 349 349 352 356 354 353 350 350 347 352 345 342 342 341 340 337 336
296 295 294 297 300 298 299 302 305 309 310 309 312 316 318 320 325 326 328 331 339 344 341 343 346 349 352 346 345 342 341 341 344 347 354 356 354 352 352 348 350 348 344 343 346 343 340 336 336
296 293 292 296 299 298 298 297 303 307 309 311 311 313 315 318 322 325 331 338 337 343 345 347 346 347 349 347 347 347 346 342 344 351 354 355 354 353 351 348 347 347 345 346 345 342 336 334 338
294 292 293 292 296 297 296 294 299 304 308 310 312 315 316 316 318 324 325 332 338 337 340 342 346 347 349 348 348 350 350 352 352 354 354 354 353 353 351 348 348 347 346 343 344 341 338 332 335
290 296 295 293 291 287 296 287 297 301 304 307 309 312 315 316 318 320 324 331 335 337 340 344 345 344 346 349 347 345 340 338 344 351 350 352 353 351 349 348 348 348 345 344 342 342 338 339 333
292 297 294 294 292 291 291 288 292 299 300 305 308 311 314 316 318 318 321 325 324 327 331 333 341 343 345 345 347 343 346 346 354 352 354 351 351 350 348 348 349 347 346 347 343 343 342 340 335
298 295 294 294 292 284 289 288 290 294 298 303 309 311 313 315 316 319 321 322 323 325 326 329 335 338 343 347 349 348 348 345 347 348 350 347 347 347 347 347 346 349 347 346 345 345 343 339 338
295 291 283 281 283 283 291 288 291 298 301 303 306 310 313 316 316 317 319 320 322 324 328 331 338 337 344 344 350 347 348 349 357 350 348 344 343 344 345 345 345 347 348 347 345 343 340 340 337
291 291 284 276 279 283 290 285 290 301 303 305 308 311 313 313 315 317 320 322 321 326 327 326 329 335 343 343 344 350 351 352 355 350 347 343 342 343 345 346 348 347 347 345 345 342 341 338 337
292 288 294 287 288 284 287 290 296 300 301 304 306 309 310 315 318 317 319 323 326 331 339 336 329 334 337 338 347 349 352 354 352 352 349 346 346 346 346 348 347 345 345 343 343 341 338 337 337
295 297 288 289 279 278 284 285 287 295 298 302 304 307 311 314 314 316 319 324 334 336 340 340 335 336 338 348 350 350 354 355 355 353 349 346 349 348 347 346 346 344 343 342 341 339 337 336 336
291 291 291 291 287 280 280 284 297 297 301 300 306 308 311 313 313 315 319 328 332 337 337 337 337 343 346 348 349 351 351 354 353 351 350 347 348 347 346 344 342 341 342 340 338 337 335 334 334
295 291 291 284 284 288 286 286 299 300 302 301 303 308 311 312 312 313 325 331 330 332 335 336 340 343 347 349 349 351 346 346 349 346 346 345 344 343 341 341 339 338 338 336 336 334 333 332 331
Wind_Speed
10 12 10 9 7 8 15 19 20 20 8 6 3 5 4 11 11 7 16 12 24 20 19 20 20 19 18 15 13 12 10 10 11 11 12 12 12 11 11 10 9 9 8 7 8 7 6 5 5
11 13 9 7 9 12 14 20 21 18 3 7 4 1 7 9 15 17 12 19 21 18 17 16 19 18 18 16 14 12 11 10 11 12 12 12 11 11 11 11 10 9 9 8 6 6 5 4 3
12 16 8 6 13 16 17 19 15 8 2 6 4 13 11 4 17 17 9 21 20 16 16 15 20 18 18 17 15 13 12 10 11 12 12 13 11 11 11 10 10 10 9 8 7 6 5 4 3
8 8 6 11 18 19 24 23 24 10 13 7 9 6 4 11 6 13 15 20 18 16 16 19 20 19 18 17 16 15 12 12 12 12 12 12 12 11 12 11 11 10 11 10 9 7 6 6 5
10 8 11 15 19 20 23 22 17 11 8 8 10 10 7 9 13 19 18 16 17 18 15 18 20 18 17 17 16 16 14 12 12 12 12 13 13 13 13 13 12 12 11 11 10 9 8 7 6
6 5 11 14 17 20 21 20 23 11 12 7 7 12 9 16 18 15 17 17 16 17 15 15 19 17 16 17 17 17 16 15 13 13 13 13 14 14 14 13 13 13 12 12 11 10 9 7 6
17 12 15 18 18 19 19 19 20 12 12 16 14 12 12 19 16 17 17 16 16 17 16 14 14 15 15 15 15 16 17 16 15 14 14 14 14 14 14 14 14 14 13 13 12 11 10 9 8
13 15 24 19 16 22 17 20 18 15 14 18 17 9 8 11 19 20 18 17 18 16 17 14 13 14 13 11 15 16 16 17 16 15 14 15 15 15 15 14 14 14 14 13 13 13 11 10 8
20 17 18 23 22 18 16 16 16 18 18 18 12 14 10 10 13 13 19 16 16 16 17 16 15 14 13 13 13 14 16 15 15 14 15 12 9 11 13 14 16 16 15 14 14 13 12 11 9
19 18 26 23 21 17 18 17 14 16 18 18 15 7 6 4 5 11 13 16 16 18 19 17 16 15 13 11 10 12 11 9 10 10 11 10 10 8 12 14 19 17 16 15 14 13 13 11 7
22 26 24 25 23 20 23 22 13 18 21 19 16 19 11 9 11 11 13 17 17 17 16 19 14 16 15 11 9 7 7 8 9 13 11 10 9 8 8 7 8 8 14 8 10 9 8 10 8
27 29 26 28 24 24 26 26 20 18 22 23 20 18 12 14 10 17 18 16 15 15 13 18 15 14 13 9 9 10 9 9 9 11 13 9 8 8 8 7 8 9 8 10 8 8 9 10 10
29 27 26 25 25 25 26 28 25 20 21 24 25 23 13 11 7 11 9 4 5 9 14 15 18 11 8 7 4 7 9 9 10 11 14 12 10 10 8 7 8 10 10 10 9 9 10 11 11
22 27 26 26 26 26 28 27 22 25 21 22 24 23 11 14 17 11 9 6 3 3 2 4 15 13 11 8 7 4 5 6 7 8 11 17 12 8 9 9 7 7 10 9 11 10 8 10 9
22 26 25 27 25 26 24 28 33 22 22 23 24 23 22 16 24 16 13 8 5 2 2 4 1 13 11 9 7 5 5 6 7 6 8 17 14 12 11 9 10 7 6 10 8 11 8 6 6
21 22 22 24 27 28 21 28 29 24 21 22 24 22 21 22 18 14 11 8 8 7 7 6 6 6 12 10 7 6 7 6 5 7 5 12 15 13 11 8 7 9 5 6 5 4 5 5 4
16 21 25 26 23 24 27 32 28 22 24 23 20 20 21 21 20 15 17 13 9 9 8 7 5 3 9 7 8 9 8 6 6 6 5 8 14 15 9 9 6 7 6 5 4 4 3 4 4
17 20 20 25 24 26 26 28 29 26 26 23 22 21 23 24 24 19 15 14 7 6 7 6 5 3 2 2 6 5 5 7 6 7 6 8 9 13 11 7 8 5 5 5 4 5 4 4 4
20 21 24 25 26 27 23 25 29 23 25 26 21 19 19 21 21 23 19 18 10 9 9 9 8 6 3 3 4 5 6 5 7 7 7 7 9 10 10 9 6 7 6 6 5 5 5 4 3
20 20 23 23 24 23 25 29 30 24 24 23 24 22 19 24 21 19 11 7 11 10 9 9 9 8 6 4 5 4 4 7 8 6 6 7 9 9 9 9 8 8 5 6 6 6 3 3 3
19 21 21 23 21 21 26 28 28 28 24 21 18 22 22 24 22 15 18 11 9 10 10 10 9 9 9 10 6 5 5 4 3 4 4 5 7 8 8 10 7 8 6 6 5 5 5 5 5
22 20 23 22 21 18 19 18 23 23 25 21 22 23 19 22 22 18 14 6 4 4 6 8 10 11 11 11 8 9 8 7 5 4 6 7 7 8 9 9 7 8 7 7 7 6 5 4 4
21 21 22 23 23 22 23 17 19 23 26 21 22 26 21 15 18 21 19 9 10 10 9 10 11 13 14 14 12 8 8 5 4 3 8 8 7 9 10 9 7 8 7 7 9 7 7 5 3
21 21 23 22 19 20 24 23 21 20 24 24 22 23 22 18 22 15 14 14 15 15 15 14 15 15 14 12 12 9 9 8 6 7 7 7 6 6 8 10 7 8 6 6 6 6 6 4 3
17 6 5 10 15 18 25 25 19 24 24 29 28 17 14 19 20 19 20 17 13 13 10 7 9 13 12 14 12 13 11 11 7 12 9 9 6 5 9 8 8 7 6 6 5 6 4 5 3
26 13 13 17 16 18 20 11 15 25 24 29 25 19 16 22 21 9 6 8 10 10 13 15 10 10 12 12 13 11 12 7 7 11 10 8 7 7 8 9 9 8 7 6 6 4 4 4 4
16 16 18 19 23 16 19 23 15 25 24 25 25 22 5 7 3 2 3 7 8 9 7 9 10 11 11 12 11 11 10 10 10 9 14 11 12 9 11 11 9 9 6 7 6 3 4 6 4
23 18 18 10 16 19 16 18 14 19 14 23 23 17 13 10 2 4 11 11 5 6 6 7 10 11 11 12 10 10 11 8 9 9 14 15 12 13 12 9 7 7 7 6 5 4 6 6 4
10 17 14 16 8 6 13 13 7 14 20 21 20 18 15 8 6 8 7 3 7 7 14 7 9 12 11 11 12 12 11 9 11 9 7 10 11 12 11 9 7 7 6 5 6 4 7 7 5
27 12 5 4 10 13 12 20 16 15 24 28 34 10 9 8 4 12 4 5 10 12 13 8 8 12 12 12 12 11 11 10 10 9 10 9 9 8 7 11 9 8 7 7 6 5 6 7 6
Wind_Direction
258 250 251 260 245 230 252 244 258 268 255 292 202 358 293 285 36 87 132 151 125 138 142 151 154 154 154 156 154 152 150 143 145 144 144 145 145 149 145 144 149 156 158 157 156 154 149 139 118
240 247 254 278 236 245 245 231 244 244 278 127 269 200 279 270 102 137 139 127 125 134 139 149 156 158 157 157 157 148 150 152 152 152 155 152 156 157 156 157 164 168 171 171 170 166 162 142 132
259 265 261 233 236 246 266 264 220 203 145 100 165 215 226 246 125 136 123 120 123 133 143 150 157 160 160 159 155 152 154 157 162 164 162 163 165 165 165 168 177 175 178 178 183 181 176 166 173
237 221 252 260 254 247 246 278 302 169 201 161 255 170 253 68 78 127 141 132 130 138 148 148 158 160 161 160 156 157 162 171 171 172 169 170 173 171 173 175 183 185 186 187 191 191 190 189 194
253 268 242 248 247 254 278 285 293 279 197 196 214 248 192 110 99 134 135 139 146 144 156 152 159 160 161 161 160 160 167 178 184 178 176 174 179 178 180 183 187 191 193 194 196 200 204 206 210
237 248 253 244 256 270 275 279 292 252 269 227 226 215 203 147 134 146 149 155 159 144 133 147 157 163 165 165 167 166 171 179 188 187 186 185 186 185 185 189 193 195 198 198 199 205 209 214 224
241 242 242 266 262 265 278 302 316 273 253 262 258 221 249 150 159 154 165 166 155 141 128 144 162 166 170 171 174 175 176 181 187 191 190 193 193 193 193 194 199 201 204 200 202 207 210 217 226
250 257 261 257 264 267 265 276 288 305 288 251 253 271 233 257 160 152 172 174 150 147 139 146 159 172 176 178 182 186 183 184 188 192 198 196 197 198 199 203 207 207 209 207 208 209 212 219 225
250 254 253 253 250 263 274 276 288 275 282 291 304 310 57 54 75 175 182 171 159 163 150 152 165 172 181 181 186 191 195 191 195 196 201 198 203 202 209 206 212 211 211 214 213 215 217 217 224
237 244 241 249 259 270 279 277 259 273 252 252 259 239 117 161 206 205 187 176 171 168 164 157 161 166 180 187 177 186 195 201 204 203 201 205 209 211 207 208 213 207 206 216 219 218 221 217 226
229 244 247 255 263 257 269 279 268 274 272 258 216 246 204 211 194 216 201 192 186 183 178 163 155 162 174 195 166 176 190 197 203 208 202 197 210 215 211 208 198 203 206 210 215 218 221 219 220
244 247 245 258 263 280 282 284 271 256 275 286 289 227 218 215 239 207 201 208 197 196 187 145 148 158 177 174 171 172 189 192 200 204 201 203 197 209 217 208 196 193 197 204 218 208 207 219 228
249 247 252 256 256 256 268 267 272 265 256 273 282 285 245 181 231 277 242 214 9 23 70 202 162 161 163 176 190 184 189 188 198 195 197 197 203 210 204 218 209 184 197 192 211 214 208 208 211
262 261 260 253 249 257 252 256 254 250 262 267 277 279 264 199 260 251 278 299 294 67 327 14 153 157 160 176 193 226 195 200 198 194 192 198 198 196 209 205 216 216 190 206 197 215 218 198 205
263 273 275 265 263 253 251 261 250 249 233 249 258 266 271 250 207 213 234 224 228 253 284 331 22 153 163 171 172 214 244 207 234 210 193 188 194 202 196 213 206 207 223 194 197 206 217 191 205
280 271 268 247 249 256 259 260 249 258 249 231 248 260 265 265 250 242 238 215 187 194 189 201 260 166 168 167 179 200 217 238 230 216 221 177 191 192 206 205 208 209 199 229 205 202 193 185 212
243 259 261 267 256 253 239 254 253 249 249 246 227 242 254 261 262 228 240 245 197 194 191 176 185 263 164 177 195 199 207 215 214 216 211 196 181 194 190 211 210 185 204 207 213 211 191 193 197
269 257 251 253 258 268 263 245 247 244 255 252 242 231 230 238 250 249 218 236 224 136 131 159 154 192 128 219 201 218 199 219 224 226 217 190 185 178 195 206 203 206 193 210 206 192 201 188 203
303 291 284 284 294 297 285 263 266 240 234 239 249 238 250 254 247 230 232 222 175 165 166 172 173 196 183 226 221 233 222 230 230 216 206 178 168 179 177 198 212 198 200 202 205 180 191 200 205
275 288 287 289 292 291 286 281 279 269 255 237 230 228 238 258 243 253 219 185 170 168 170 177 189 188 201 221 218 234 223 225 213 193 181 166 162 171 183 191 217 191 198 197 210 178 165 194 217
268 268 275 284 294 283 285 281 276 271 276 259 272 233 216 236 254 259 237 211 182 182 183 184 187 190 203 221 229 209 236 254 271 165 154 159 154 170 183 194 226 172 183 202 189 167 189 199 210
282 281 277 281 280 275 276 272 266 269 262 264 272 273 232 217 239 250 250 232 238 230 194 188 192 199 209 214 217 219 217 218 220 177 157 156 166 181 182 186 221 166 190 198 179 174 197 225 194
283 300 293 288 286 285 269 264 266 270 264 252 232 258 255 240 241 236 241 223 238 240 225 224 208 201 206 204 210 208 220 203 199 153 144 153 168 162 173 187 211 180 198 171 172 176 188 182 164
306 291 288 276 276 261 266 264 264 258 266 267 261 230 244 239 249 235 243 242 234 232 234 226 211 204 202 193 191 201 216 209 189 181 148 138 134 159 180 196 204 179 202 163 159 157 155 140 183
271 231 302 275 267 266 257 251 258 265 259 261 266 269 239 227 228 228 222 218 224 223 220 218 207 196 190 186 180 199 227 197 218 148 154 149 164 181 189 189 185 179 207 162 128 115 139 153 197
283 308 287 277 282 280 300 278 301 299 262 266 273 267 261 267 245 208 224 227 226 225 213 213 212 185 177 176 193 193 208 189 189 159 144 155 168 176 179 195 183 186 185 133 116 147 170 163 206
288 277 276 291 280 280 282 277 259 260 269 254 256 258 222 274 225 151 310 286 263 267 252 187 188 177 172 186 191 186 188 202 156 162 149 163 169 173 184 187 176 178 157 125 136 152 189 188 192
272 263 281 278 275 263 265 273 258 311 332 255 260 246 277 219 125 240 235 239 265 259 258 186 171 166 182 171 172 180 183 171 151 170 169 164 168 165 166 168 168 121 120 143 150 206 190 165 166
286 268 262 258 169 235 277 270 259 356 348 334 272 208 216 137 211 250 258 254 255 269 271 164 173 164 154 162 172 167 173 153 134 146 122 120 138 145 161 154 127 139 157 151 194 247 167 151 139
326 280 348 233 263 275 290 283 25 345 344 337 327 243 120 110 313 278 175 230 239 224 235 158 181 151 157 161 166 159 123 128 135 125 117 123 126 142 155 137 156 181 176 173 158 210 152 146 151